Regional Weather Roundup
Issued by NWS Little Rock, AR

Home | Current Version | Previous Version | Text Only | Print | Product List | Glossary On
Versions: 1 2 3 4 5 6 7 8 9 10 11 12 13 14 15 16 17 18 19 20 21 22 23 24 25 26 27 28 29 30 31 32 33 34 35 36 37 38 39 40 41 42 43 44 45 46 47 48 49 50
000
ASUS44 KLZK 212105
RWRLZK

WEATHER ROUNDUP FOR ARKANSAS
NATIONAL WEATHER SERVICE LITTLE ROCK AR
300 PM CST SUN DEC 21 2014

NOTE: "FAIR" INDICATES FEW OR NO CLOUDS BELOW 12,000 FEET WITH NO
SIGNIFICANT WEATHER AND/OR OBSTRUCTIONS TO VISIBILITY.

ARZ001-003-010-029-212200-
NORTHWEST ARKANSAS

CITY           SKY/WX    TMP DP  RH WIND       PRES   REMARKS
FAYETTEVILLE   CLOUDY    46  38  73 S8        29.92F
FORT SMITH     CLOUDY    51  38  60 SE7       29.93F
HARRISON       CLOUDY    45  37  73 S12       29.94F
BENTONVILLE    CLOUDY    46  37  71 S12       29.92F
ROGERS         CLOUDY    45  38  76 SE10      29.91F
SILOAM SPGS    CLOUDY    46  36  66 S13       29.92S
HIGHFILL       CLOUDY    46  38  73 S15       29.90F
SPRINGDALE     CLOUDY    46  37  71 S9        29.93F
$$

ARZ004-005-016-212200-
NORTH CENTRAL ARKANSAS

CITY           SKY/WX    TMP DP  RH WIND       PRES   REMARKS
BATESVILLE     CLOUDY    50  36  57 E10       30.02S
FLIPPIN        CLOUDY    46  34  61 E3        29.97F
MTN HOME       CLOUDY    45  36  70 E7        29.97F
$$

ARZ040-041-212200-
WEST CENTRAL ARKANSAS

CITY           SKY/WX    TMP DP  RH WIND       PRES   REMARKS
MENA           CLOUDY    50  41  71 SE3       29.93F
MOUNT IDA      CLOUDY    52  40  63 S5        29.93F
$$

ARZ009-017-025-026-028-212200-
NORTHEAST ARKANSAS

CITY           SKY/WX    TMP DP  RH WIND       PRES   REMARKS
CORNING        FAIR      45  34  65 NE7       30.06F
JONESBORO      PTSUNNY   50  39  66 NE3       30.04F
NEWPORT        SUNNY     51  38  61 E5        30.05F
WALNUT RIDGE   PTSUNNY   45  32  61 NE5       30.04F
BLYTHEVILLE    SUNNY     53  35  50 E6        30.06F
$$

ARZ022-023-033-042-044-212200-
CENTRAL ARKANSAS

CITY           SKY/WX    TMP DP  RH WIND       PRES   REMARKS
LITTLE ROCK    PTSUNNY   54  35  48 SE10      30.01F
N LITTLE ROCK  PTSUNNY   51  39  62 SE10      30.01F
JACKSONVILLE   PTSUNNY   55  37  51 SE9       30.01F
SEARCY         SUNNY     54  36  50 MISG      30.03F
HOT SPRINGS    MOSUNNY   53  38  56 SE6       29.97F
RUSSELLVILLE   CLOUDY    49  38  65 E7        29.98F
CLINTON        PTSUNNY   50  36  57 SE8       30.00F
$$

ARZ036-212200-
EAST ARKANSAS

CITY           SKY/WX    TMP DP  RH WIND       PRES   REMARKS
WEST MEMPHIS   SUNNY     54  35  48 SE6       30.03F
$$

ARZ050-053-066-070-073-212200-
SOUTHWEST ARKANSAS

CITY           SKY/WX    TMP DP  RH WIND       PRES   REMARKS
ARKADELPHIA    FAIR      57  44  62 SE7       29.98F
CAMDEN         SUNNY     59  37  44 MISG      29.99F
TEXARKANA      MOSUNNY   55  43  63 S8        29.96F
EL DORADO      SUNNY     58  41  53 E7        29.98F
DE QUEEN       CLOUDY    53  42  66 S8        29.93F
$$

ARZ056-057-069-212200-
SOUTHEAST ARKANSAS

CITY           SKY/WX    TMP DP  RH WIND       PRES   REMARKS
PINE BLUFF     SUNNY     55  36  48 E13       30.01F
STUTTGART      MOSUNNY   55  36  47 SE8       30.03F
MONTICELLO     SUNNY     57  37  47 SE6       30.00F

$$




USA.gov is the U.S. government's official web portal to all federal, state and local government web resources and services.